H-2A R/B

Satellite information

Favourite Embed

Satellite Type and Status

ROCKET BODYIN ORBIT

Key statistics

Satellite H-2A R/B at a glance.

Uptime

3491

Days in orbit

Revolutions

≈ 15.4

Per day

Orbit

LEO

Low Earth Orbit

Inclination

30.6

Latest

Satellite identification and parameters

Extended collection of information and parameters for H-2A R/B.

Object identification

Identified? True

Debris? False

Object name: H-2A R/B

International designator: 2016-012E

Object number (NORAD): 41341

Object ID (CCSDS): 41341

Country: JAPAN (JPN)

Current information (Y/N): Y

RCS size: LARGE

Orbital parameters

Period: 93.624 minutes

Inclination: 30.6256 deg

SMA: 6829.95 km

Apoapsis: 457.865 km

Periapsis: 445.766 km

RAAN: 49.4485 deg

Eccentricy: 0.00088574

Argument of periapsis: 89.4803 deg

Mean anomaly: 270.6851 deg

Mean motion: 15.38071166 rev/day

Mean motion (dot): 0.00021242 rev/day2

B* drag term: 0.00054415009 1/REarth

Two-line elements (TLE)

Creation date: Sept. 8, 2025, 3:16 a.m.

Reference frame: TEME

Reference center: EARTH

Epoch: Sept. 7, 2025, 5:03 p.m. UTC

TLE line 0: 0 H-2A R/B

TLE line 1: 1 41341U 16012E 25250.71044716 .00021242 00000-0 54415-3 0 9990

TLE line 2: 2 41341 30.6256 49.4485 0008857 89.4803 270.6851 15.38071166527732

Live tracking on map

Real-time ground track for satellite H-2A R/B.

In-orbit conjunctions

A list of the most updated potential collisions computed for object H-2A R/B.

Target Orbit TCA Probability of collision Miss distance Type
PEGASUS R/B LEO 2025-06-09 20:25:43 0.0001005689 279.0 (m) ROCKET BODY
OV1-2 HEO 2025-05-04 11:43:11 0.0005290848 635.0 (m) PAYLOAD

Associated space launch

Astro-H is the 6th satellite in a series of X-ray telescopes by JAXA and ISAS. Its 4 instruments on board will cover the X-ray and Gamma ray regions. This region consists of photons with energy ranging from 0.3-600keV, and the telescope will provide the highest resolution ever achieved of 3-10 keV bands. The craft weighs 2.7 tonnes and will be placed into a circular orbit 575km above the ground, with an inclination of 31 degrees.

H-2A R/B was lifted into orbit during the mission ‘H-IIA 202 | Astro-H (Hitomi)’, on board a H-IIA space rocket.

The launch took place on Feb. 17, 2016, 8:45 a.m. from Yoshinobu Launch Complex LP-1.

For more information about the launch, click the button.

Launch to space H-IIA 202 | Astro-H (Hitomi)
H-IIA 202 | Astro-H (Hitomi)

Agency: N/A

Status: Launch Successful

Launch date: Feb. 17, 2016, 8:45 a.m. UTC

Rocket: H-IIA

Launch pad: Yoshinobu Launch Complex LP-1

Location: Tanegashima Space Center, Japan

...

Latest news about this satellite

There are no fresh news available about this satellite. Check back as we update our databases every day.


Newsletter sign-up

Weekly statistics, charts and insights to help you stay on top of the space industry.